Showing default

LEMUR 2 KREMPEL-BRO1, 63357

Orbit data source: Space-Track

LEMUR 2 KREMPEL-BRO1, 63357 is a payload satellite owned by OroraTech (US) in SSO that was launched on Wed, 26 Mar 2025 UTC via an ELECTRON launch vehicle from the Rocket Lab Launch Complex (RLLC). Payload-class satellites include a variety of spacecraft equipped with specific instruments for various scientific and technological missions. These include communications satellites like Starlink; space stations such as the ISS; scientific satellites like the Hubble; Earth observation satellites from companies like Planet Labs, Umbra, and HawkEye 360; GPS; miniature CubeSats for education and research; and military/defense satellites.

Loading next visibility...
Identifier
63357, 2025-061G
Orbit
SSO
Country
Flag of USUS
Related business
Manufacturer
Spire/Glasgow
Mission
Operational Commercial Imaging
Bus & Motor
CUBESAT 6U, Unknown motor
Mass
~15 kg wet, ~15 kg dry
Launch date (UTC)
2025-03-26 (7 months ago)
Launch vehicle
ELECTRON
Launch site
Rocket Lab Launch Complex (RLLC)
Object type
Payload
Rocket body
Debris
Shape & HBR
Box + 2 Pan, 0.3 m
Radar Cross Section
0.065 m², Medium (>0.1 m² and < 1m²)

Expand to show TLE details & history
Last TLE update: 21 hours ago

TLE from 21 hours ago
0 LEMUR 2 KREMPEL-BRO1
1 63357U 25061G   25309.46435112  .00005509  00000-0  32161-3 0  9998
2 63357  97.5367 282.4171 0017947 304.6824  55.2714 15.12206982 33795
Epoch: 2025-11-05T11:08Z
TLE epoch observation values (Epoch: 2025-11-05T11:08:39.936Z)
Latitude
-0.00013°
Longitude
70.31407°
Altitude
525.498 km
Speed
7.604 km/s
True Right ascension
18h 49m 40s
True Declination
0° 00' 00"
Sunlit
Object was in daylight at epoch
Visualization orbit readout
Latitude
Unknown
Longitude
Unknown
Altitude
Unknown
Speed
Unknown
Apparent Right ascension
Unknown
Apparent Declination
Unknown
Sunlit
N/A
Visualization observer readout
Local Sidereal Time
04:03:19
Azimuth
Unknown
Elevation
Unknown
Doppler factor
Unknown
Orbital elements
Apogee altitude
538.844 km
Perigee altitude
514.061 km
Semi-major axis
6,904.59 km
Eccentricity
0.00179
Inclination
97.5367°
RAAN
282.4171°
Arg. of periapsis
304.6824°
True anomaly
55.44064°
Mean anomaly
55.2714°
Eccentric anomaly
55.356°
Mean motion
3.783 °/min
Orbital period
95.16 mins
BSTAR
0.00032161
Loading maneuver chart data...
Computing Atmospheric mass density...
Loading historical data...
Loading historical data...
Loading historical data...
Loading historical data...
Loading historical data...
Loading historical data...
Loading historical data...

Documentation

Showing up to 5 results
|